Location: Newark
(33.4453°N, 112.0669°W)
Time: 04:32:12
(UTC+00:00)

Vanguard 3 - Visible Passes

Search period start: 27 February 2020 00:00
Search period end: 08 March 2020 00:00
Orbit: 508 x 3263 km, 33.3° (Epoch: 25 February)

Date Brightness Start Highest point End Pass type
(mag) Time Alt. Az. Time Alt. Az. Time Alt. Az.
28 Feb 9.1 13:06:02 10° SSE 13:07:02 11° SSE 13:08:03 10° SE visible
01 Mar 8.8 12:48:45 10° S 12:51:07 15° SSE 12:53:21 10° ESE visible
03 Mar 8.3 12:32:19 11° SSW 12:35:16 21° SSE 12:38:08 10° ESE visible
04 Mar 9.3 11:22:43 12° SE 11:22:43 12° SE 11:23:28 10° SE visible
05 Mar 7.9 12:17:38 21° SSW 12:19:28 28° SSE 12:22:46 10° E visible
06 Mar 9.3 11:07:55 14° SE 11:07:55 14° SE 11:08:53 10° ESE visible
06 Mar 6.7 13:12:56 10° WSW 13:17:12 58° SSE 13:20:48 10° E visible
07 Mar 7.6 12:02:44 34° S 12:03:41 37° SSE 12:07:20 10° E visible
